Valdez, AK

5:46 PM AKST on January 18, 2017 (GMT -0900)
Valdez

Weather History for PAVD - September, 2013

Change the Weather History Date:

Monday, September 23, 2013

  Actual Average Record
Temperature  
Mean Temperature 46 °F -  
Max Temperature 53 °F 51 °F 64 °F (1966)
Min Temperature 39 °F 39 °F 32 °F (1978)
Degree Days  
Heating Degree Days 19    
Moisture  
Dew Point 30 °F    
Average Humidity 51    
Maximum Humidity 71    
Minimum Humidity 41    
Precipitation  
Precipitation 0.00 in - - ()
Sea Level Pressure  
Sea Level Pressure 29.37 in    
Wind  
Wind Speed 10 mph (East)    
Max Wind Speed 28 mph    
Max Gust Speed 33 mph    
Visibility 10 miles    
Events      
Averages and records for this station are not official NWS values.
T = Trace of Precipitation, MM = Missing Value Source: NWS Daily Summary

Daily Weather History Graph

Daily Weather History Graph

Search for Another Location

Airport or City:

Trip Planner

Search our weather history database for the weather conditions in past years. The results will help you decide how hot, cold, wet, or windy it might be!

Date:

Astronomy

Sep. 23, 2013 Rise Set
Actual Time 7:32 AM AKDT 7:40 PM AKDT
Civil Twilight 6:49 AM AKDT 8:23 PM AKDT
Nautical Twilight 5:57 AM AKDT 9:14 PM AKDT
Astronomical Twilight 5:00 AM AKDT 10:11 PM AKDT
Moon 8:55 PM AKDT (9/23) 1:22 PM AKDT (9/23)
Length of Visible Light 13h 33m
Length of Day
12h 07m
Waning Gibbous, 80% of the Moon is Illuminated
Sep 23
Waning Gibbous
Sep 26
Last Quarter
Oct 4
New
Oct 11
First Quarter
Oct 18
Full

Hourly Weather History & Observations

Time (AKDT) Temp. Windchill Dew Point Humidity Pressure Visibility Wind Dir Wind Speed Gust Speed Precip Events Conditions
12:16 AM 51.8 °F - 28.4 °F 41% 29.12 in 10.0 mi East 24.2 mph 31.1 mph N/A   Overcast
12:36 AM 50.0 °F - 28.4 °F 43% 29.13 in 10.0 mi ENE 23.0 mph 27.6 mph N/A   Overcast
12:56 AM 50.0 °F - 28.4 °F 43% 29.14 in 10.0 mi ENE 20.7 mph 29.9 mph N/A   Overcast
1:16 AM 50.0 °F - 28.4 °F 43% 29.16 in 10.0 mi ENE 8.1 mph 17.3 mph N/A   Overcast
1:36 AM 50.0 °F - 28.4 °F 43% 29.17 in 10.0 mi East 10.4 mph - N/A   Overcast
1:56 AM 48.2 °F - 30.2 °F 50% 29.19 in 10.0 mi ESE 5.8 mph - N/A   Overcast
2:16 AM 48.2 °F - 30.2 °F 50% 29.19 in 10.0 mi Calm Calm - N/A   Overcast
2:36 AM 48.2 °F - 32.0 °F 54% 29.20 in 10.0 mi Calm Calm - N/A   Overcast
2:56 AM 44.6 °F - 33.8 °F 66% 29.20 in 10.0 mi Calm Calm - N/A   Overcast
3:16 AM 44.6 °F 43.1 °F 33.8 °F 66% 29.20 in 10.0 mi NE 3.5 mph - N/A   Overcast
3:36 AM 44.6 °F 43.1 °F 35.6 °F 71% 29.20 in 10.0 mi SW 3.5 mph - N/A   Overcast
3:56 AM 46.4 °F 44.3 °F 30.2 °F 53% 29.21 in 10.0 mi NNW 4.6 mph - N/A   Overcast
4:16 AM 46.4 °F 44.3 °F 33.8 °F 62% 29.22 in 10.0 mi South 4.6 mph - N/A   Overcast
4:36 AM 46.4 °F 45.2 °F 30.2 °F 53% 29.23 in 10.0 mi SW 3.5 mph - N/A   Overcast
4:56 AM 46.4 °F 42.4 °F 30.2 °F 53% 29.23 in 10.0 mi NNW 8.1 mph - N/A   Overcast
5:16 AM 44.6 °F 41.4 °F 30.2 °F 57% 29.24 in 10.0 mi West 5.8 mph - N/A   Overcast
5:36 AM 44.6 °F 41.4 °F 30.2 °F 57% 29.24 in 10.0 mi WNW 5.8 mph - N/A   Scattered Clouds
5:56 AM 44.6 °F - 30.2 °F 57% 29.25 in 10.0 mi Calm Calm - N/A   Partly Cloudy
6:16 AM 44.6 °F 40.2 °F 32.0 °F 61% 29.25 in 10.0 mi North 8.1 mph - N/A   Mostly Cloudy
6:36 AM 44.6 °F 41.4 °F 30.2 °F 57% 29.26 in 10.0 mi South 5.8 mph - N/A   Mostly Cloudy
6:56 AM 44.6 °F 42.2 °F 30.2 °F 57% 29.27 in 10.0 mi SSW 4.6 mph - N/A   Mostly Cloudy
7:16 AM 42.8 °F 40.1 °F 30.2 °F 61% 29.27 in 10.0 mi NNW 4.6 mph - N/A   Mostly Cloudy
7:36 AM 41.0 °F - 30.2 °F 65% 29.28 in 10.0 mi Calm Calm - N/A   Mostly Cloudy
7:56 AM 42.8 °F - 32.0 °F 66% 29.29 in 10.0 mi Calm Calm - N/A   Mostly Cloudy
8:16 AM 44.6 °F - 30.2 °F 57% 29.30 in 10.0 mi Calm Calm - N/A   Mostly Cloudy
8:36 AM 42.8 °F - 30.2 °F 61% 29.31 in 10.0 mi Calm Calm - N/A   Mostly Cloudy
8:56 AM 44.6 °F - 28.4 °F 53% 29.32 in 10.0 mi Calm Calm - N/A   Mostly Cloudy
9:16 AM 46.4 °F - 30.2 °F 53% 29.32 in 10.0 mi Calm Calm - N/A   Mostly Cloudy
9:36 AM 46.4 °F 43.5 °F 30.2 °F 53% 29.33 in 10.0 mi ENE 5.8 mph - N/A   Mostly Cloudy
9:56 AM 48.2 °F - 28.4 °F 46% 29.34 in 10.0 mi Calm Calm - N/A   Mostly Cloudy
10:16 AM 48.2 °F - 30.2 °F 50% 29.34 in 10.0 mi Calm Calm - N/A   Mostly Cloudy
10:36 AM 50.0 °F - 30.2 °F 47% 29.34 in 10.0 mi NE 4.6 mph - N/A   Mostly Cloudy
10:56 AM 50.0 °F - 28.4 °F 43% 29.35 in 10.0 mi West 3.5 mph - N/A   Mostly Cloudy
11:16 AM 51.8 °F - 30.2 °F 44% 29.36 in 10.0 mi Calm Calm - N/A   Mostly Cloudy
11:36 AM 51.8 °F - 28.4 °F 41% 29.36 in 10.0 mi East 24.2 mph 29.9 mph N/A   Mostly Cloudy
11:56 AM 51.8 °F - 28.4 °F 41% 29.37 in 10.0 mi ENE 13.8 mph 24.2 mph N/A   Mostly Cloudy
12:16 PM 51.8 °F - 30.2 °F 44% 29.37 in 10.0 mi East 23.0 mph 32.2 mph N/A   Mostly Cloudy
12:36 PM 51.8 °F - 28.4 °F 41% 29.37 in 10.0 mi ENE 21.9 mph 28.8 mph N/A   Mostly Cloudy
12:56 PM 51.8 °F - 30.2 °F 44% 29.37 in 10.0 mi East 20.7 mph 29.9 mph N/A   Mostly Cloudy
1:16 PM 53.6 °F - 30.2 °F 41% 29.37 in 10.0 mi East 23.0 mph 28.8 mph N/A   Mostly Cloudy
1:36 PM 53.6 °F - 30.2 °F 41% 29.38 in 10.0 mi East 17.3 mph 33.4 mph N/A   Mostly Cloudy
1:56 PM 53.6 °F - 30.2 °F 41% 29.38 in 10.0 mi East 18.4 mph 24.2 mph N/A   Mostly Cloudy
2:16 PM 53.6 °F - 30.2 °F 41% 29.39 in 10.0 mi ESE 15.0 mph 29.9 mph N/A   Mostly Cloudy
2:36 PM 53.6 °F - 30.2 °F 41% 29.40 in 10.0 mi ESE 12.7 mph 27.6 mph N/A   Mostly Cloudy
2:56 PM 53.6 °F - 30.2 °F 41% 29.40 in 10.0 mi East 17.3 mph 27.6 mph N/A   Scattered Clouds
3:16 PM 53.6 °F - 30.2 °F 41% 29.41 in 10.0 mi ESE 15.0 mph 24.2 mph N/A   Scattered Clouds
3:36 PM 53.6 °F - 30.2 °F 41% 29.41 in 10.0 mi East 18.4 mph - N/A   Scattered Clouds
3:56 PM 53.6 °F - 30.2 °F 41% 29.42 in 10.0 mi ESE 10.4 mph 24.2 mph N/A   Scattered Clouds
4:16 PM 53.6 °F - 30.2 °F 41% 29.42 in 10.0 mi East 21.9 mph 27.6 mph N/A   Scattered Clouds
4:36 PM 53.6 °F - 30.2 °F 41% 29.44 in 10.0 mi ESE 16.1 mph 26.5 mph N/A   Scattered Clouds
4:56 PM 53.6 °F - 30.2 °F 41% 29.44 in 10.0 mi East 27.6 mph 33.4 mph N/A   Scattered Clouds
5:16 PM 53.6 °F - 30.2 °F 41% 29.45 in 10.0 mi East 19.6 mph 28.8 mph N/A   Scattered Clouds
5:36 PM 51.8 °F - 30.2 °F 44% 29.45 in 10.0 mi East 16.1 mph 28.8 mph N/A   Scattered Clouds
5:56 PM 51.8 °F - 30.2 °F 44% 29.46 in 10.0 mi East 13.8 mph 26.5 mph N/A   Mostly Cloudy
6:16 PM 51.8 °F - 30.2 °F 44% 29.48 in 10.0 mi East 12.7 mph 19.6 mph N/A   Mostly Cloudy
6:36 PM 51.8 °F - 30.2 °F 44% 29.49 in 10.0 mi East 13.8 mph 20.7 mph N/A   Mostly Cloudy
6:56 PM 51.8 °F - 30.2 °F 44% 29.51 in 10.0 mi ENE 5.8 mph 17.3 mph N/A   Mostly Cloudy
7:16 PM 50.0 °F - 28.4 °F 43% 29.51 in 10.0 mi East 17.3 mph - N/A   Mostly Cloudy
7:36 PM 48.2 °F - 28.4 °F 46% 29.53 in 10.0 mi ENE 9.2 mph - N/A   Mostly Cloudy
7:56 PM 46.4 °F - 30.2 °F 53% 29.54 in 10.0 mi Calm Calm - N/A   Mostly Cloudy
8:16 PM 46.4 °F - 28.4 °F 50% 29.55 in 10.0 mi Calm Calm - N/A   Mostly Cloudy
8:36 PM 44.6 °F - 30.2 °F 57% 29.56 in 10.0 mi Calm Calm - N/A   Mostly Cloudy
8:56 PM 42.8 °F - 30.2 °F 61% 29.57 in 10.0 mi Calm Calm - N/A   Scattered Clouds
9:16 PM 46.4 °F 44.3 °F 28.4 °F 50% 29.58 in 10.0 mi WSW 4.6 mph - N/A   Scattered Clouds
9:36 PM 42.8 °F - 30.2 °F 61% 29.59 in 10.0 mi Calm Calm - N/A   Scattered Clouds
9:56 PM 42.8 °F 40.1 °F 28.4 °F 57% 29.60 in 10.0 mi North 4.6 mph - N/A   Mostly Cloudy
10:16 PM 44.6 °F 42.2 °F 30.2 °F 57% 29.61 in 10.0 mi NNW 4.6 mph - N/A   Clear
10:36 PM 42.8 °F - 30.2 °F 61% 29.61 in 10.0 mi Calm Calm - N/A   Clear
10:56 PM 42.8 °F - 28.4 °F 57% 29.63 in 10.0 mi Calm Calm - N/A   Clear
11:16 PM 42.8 °F - 30.2 °F 61% 29.63 in 10.0 mi Calm Calm - N/A   Clear
11:36 PM 39.2 °F - 30.2 °F 70% 29.64 in 10.0 mi Calm Calm - N/A   Clear
11:56 PM 39.2 °F - 28.4 °F 65% 29.65 in 10.0 mi Calm Calm - N/A   Clear